GW4137 Weather Reports


Display with metric or nautical units.
time (UTC)temp
F
wind
direction
speed
MPH
gust
MPH
rain 1hr
in
rain 24hr
in
rain mn
in
humidity
%
barometer
mb
20260508141558 50 225 4.0 8.0 0.00 0.00 0.00 72 1012.1
20260508140107 49 220 3.0 5.0 0.00 0.00 0.00 75 1012.1
20260508134553 47 220 2.0 8.0 0.00 0.00 0.00 78 1012.2
20260508133057 44 0 0.0 3.0 0.00 0.00 0.00 80 1012.1
20260508131552 43 0 0.0 3.0 0.00 0.00 0.00 83 1012.1
20260508130052 42 0 0.0 4.0 0.00 0.00 0.00 83 1012.1
20260508124552 41 238 3.0 7.0 0.00 0.00 0.00 84 1012.1
20260508123052 40 0 0.0 0.0 0.00 0.00 0.00 82 1011.9
20260508121550 39 0 0.0 0.0 0.00 0.00 0.00 84 1011.8
20260508120100 39 0 0.0 0.0 0.00 0.00 0.00 84 1011.9
20260508114601 38 0 0.0 0.0 0.00 0.00 0.00 81 1012.0
20260508113101 39 0 0.0 0.0 0.00 0.00 0.00 80 1012.1
20260508111553 40 0 0.0 0.0 0.00 0.00 0.00 80 1012.1
20260508110104 41 0 0.0 0.0 0.00 0.00 0.00 78 1012.1
20260508104552 42 0 0.0 0.0 0.00 0.00 0.00 77 1012.1
20260508103057 44 0 0.0 4.0 0.00 0.00 0.00 77 1012.0
20260508101556 45 345 4.0 12.0 0.00 0.00 0.00 75 1012.1
20260508100126 45 360 8.0 12.0 0.00 0.00 0.00 76 1012.1
20260508094557 46 329 4.0 10.0 0.00 0.00 0.00 73 1012.2
20260508093057 47 325 5.0 10.0 0.00 0.00 0.00 73 1012.0
20260508091608 47 316 4.0 9.0 0.00 0.00 0.00 72 1012.1
20260508090054 48 308 4.0 10.0 0.00 0.00 0.00 70 1012.1
20260508084552 48 313 7.0 12.0 0.00 0.00 0.00 70 1012.2
20260508083055 49 300 6.0 14.0 0.00 0.00 0.00 69 1012.0
20260508081610 49 306 6.0 12.0 0.00 0.00 0.00 68 1012.0
20260508080055 49 309 6.0 14.0 0.00 0.00 0.00 67 1012.0
20260508074554 50 307 5.0 12.0 0.00 0.00 0.00 65 1012.1
20260508073053 50 313 6.0 12.0 0.00 0.00 0.00 62 1012.1
20260508071554 51 309 6.0 12.0 0.00 0.00 0.00 60 1012.1
20260508070054 52 314 7.0 12.0 0.00 0.00 0.00 57 1012.1
20260508064555 53 325 7.0 14.0 0.00 0.00 0.00 55 1011.9
20260508063057 53 328 9.0 14.0 0.00 0.00 0.00 54 1012.0
20260508061549 51 316 4.0 10.0 0.00 0.00 0.00 57 1012.0
20260508054636 51 294 5.0 10.0 0.00 0.00 0.00 60 1011.9
20260508053056 51 286 4.0 8.0 0.00 0.00 0.00 59 1011.6
20260508051554 52 285 6.0 9.0 0.00 0.00 0.00 58 1011.6
20260508050051 53 288 5.0 9.0 0.00 0.00 0.00 56 1011.8
20260508044553 52 285 5.0 8.0 0.00 0.00 0.00 59 1011.8
20260508043056 53 0 0.0 7.0 0.00 0.00 0.00 61 1011.8
20260508041552 54 0 2.0 6.0 0.00 0.00 0.00 59 1011.8
20260508040047 54 278 1.0 8.0 0.00 0.00 0.00 59 1011.9
20260508034552 54 0 0.0 6.0 0.00 0.00 0.00 59 1012.0
20260508033055 56 272 4.0 9.0 0.00 0.00 0.00 57 1012.0
20260508031559 56 279 5.0 9.0 0.00 0.00 0.00 55 1011.9
20260508030108 57 266 5.0 9.0 0.00 0.00 0.00 53 1011.8
20260508024604 58 266 6.0 13.0 0.00 0.00 0.00 52 1011.6
20260508023052 58 265 7.0 18.0 0.00 0.00 0.00 57 1011.2
20260508021556 61 255 8.0 11.0 0.00 0.00 0.00 45 1011.0
20260508020105 62 252 3.0 7.0 0.00 0.00 0.00 40 1010.9
20260508014552 63 0 0.0 5.0 0.00 0.00 0.00 39 1010.8
20260508013059 64 246 3.0 8.0 0.00 0.00 0.00 38 1010.7
20260508011552 65 244 5.0 13.0 0.00 0.00 0.00 38 1010.7
20260508010052 64 248 5.0 12.0 0.00 0.00 0.00 41 1010.8
20260508004549 64 244 3.0 15.0 0.00 0.00 0.00 42 1010.8
20260508003051 65 252 6.0 12.0 0.00 0.00 0.00 39 1011.0
20260508001551 66 246 8.0 15.0 0.00 0.00 0.00 38 1010.9
20260508000051 65 240 13.0 22.0 0.00 0.00 0.00 43 1010.8
20260507234551 65 271 17.0 25.0 0.00 0.00 0.00 41 1010.6
20260507233050 65 264 12.0 21.0 0.00 0.00 0.00 40 1010.5
20260507231555 67 0 6.0 15.0 0.00 0.00 0.00 29 1010.5
20260507230050 68 323 8.0 18.0 0.00 0.00 0.00 29 1010.4
20260507224556 68 352 6.0 15.0 0.00 0.00 0.00 29 1010.6
20260507223054 67 346 8.0 17.0 0.00 0.00 0.00 30 1010.7
20260507221556 68 280 9.0 15.0 0.00 0.00 0.00 30 1010.6
20260507220058 68 269 4.0 10.0 0.00 0.00 0.00 30 1010.7
20260507214558 68 336 3.0 17.0 0.00 0.00 0.00 30 1011.0
20260507213100 68 333 13.0 21.0 0.00 0.00 0.00 30 1011.1
20260507211556 68 338 6.0 17.0 0.00 0.00 0.00 30 1011.1
20260507204552 67 310 9.0 20.0 0.00 0.00 0.00 30 1011.2
20260507203100 68 252 6.0 18.0 0.00 0.00 0.00 29 1011.2
20260507201552 67 323 10.0 19.0 0.00 0.00 0.00 30 1011.2
20260507200050 66 328 8.0 15.0 0.00 0.00 0.00 31 1011.2
20260507194554 65 309 8.0 17.0 0.00 0.00 0.00 34 1011.3
20260507193053 65 326 9.0 15.0 0.00 0.00 0.00 32 1011.3
20260507191552 67 352 11.0 19.0 0.00 0.00 0.00 31 1011.1
20260507190050 65 301 8.0 16.0 0.00 0.00 0.00 34 1011.2
20260507184548 67 343 8.0 16.0 0.00 0.00 0.00 32 1011.2
20260507183050 66 289 10.0 20.0 0.00 0.00 0.00 33 1011.3
20260507181549 65 338 13.0 18.0 0.00 0.00 0.00 35 1011.5
20260507180058 66 349 9.0 17.0 0.00 0.00 0.00 34 1011.5
20260507174603 64 291 8.0 13.0 0.00 0.00 0.00 38 1011.5
20260507173050 65 292 10.0 20.0 0.00 0.00 0.00 37 1011.8
20260507171610 65 315 5.0 18.0 0.00 0.00 0.00 36 1011.8
20260507170051 64 288 6.0 18.0 0.00 0.00 0.00 38 1011.9
20260507164552 64 313 12.0 19.0 0.00 0.00 0.00 37 1011.8
20260507163051 63 319 8.0 15.0 0.00 0.00 0.00 38 1012.0
20260507161551 63 327 7.0 15.0 0.00 0.00 0.00 37 1011.8
20260507160054 62 0 7.0 11.0 0.00 0.00 0.00 39 1011.8
20260507154550 61 311 4.0 10.0 0.00 0.00 0.00 40 1011.6
20260507153101 60 347 2.0 7.0 0.00 0.00 0.00 42 1011.8
20260507151551 59 306 0.0 7.0 0.00 0.00 0.00 42 1011.6
20260507150055 59 306 4.0 8.0 0.00 0.00 0.00 40 1011.7
20260507144556 57 0 4.0 9.0 0.00 0.00 0.00 43 1011.8
20260507143058 55 315 7.0 12.0 0.00 0.00 0.00 45 1011.6